• In Portugal
  • List of Countries
  • For 7 days
  • Water Temperature
  • Satellite Maps
  • Weather Map
  • Weather Widgets
  • user-avatar
    Login

    Hourly Weather Maripasoula

    Today, 20 September, Wednesday

    Time Temperature Precipitation Wind Pressure Humidity
    00:00 +26°C° 0 mm 1 mps 748 mmHg 80%
    01:00 +25°C° 0 mm 1 mps 747 mmHg 84%
    02:00 +25°C° 0 mm 1 mps 747 mmHg 88%
    03:00 +24°C° 0 mm 1 mps 747 mmHg 90%
    04:00 +24°C° 0 mm 1 mps 747 mmHg 93%
    05:00 +23°C° 0 mm 1 mps 747 mmHg 96%
    06:00 +25°C° 0 mm 1 mps 748 mmHg 88%
    07:00 +27°C° 0 mm 1 mps 748 mmHg 81%
    08:00 +28°C° 0 mm 1 mps 748 mmHg 74%
    09:00 +31°C° 0 mm 1 mps 748 mmHg 63%
    10:00 +34°C° 0 mm 1 mps 747 mmHg 53%
    11:00 +36°C° 0 mm 1 mps 747 mmHg 42%
    12:00 +36°C° 0 mm 1 mps 746 mmHg 42%
    13:00 +36°C° 0 mm 1 mps 745 mmHg 43%
    14:00 +34°C° 0 mm 0 mps 744 mmHg 43%
    15:00 +33°C° 0 mm 0 mps 744 mmHg 47%
    16:00 +32°C° 0 mm 0 mps 744 mmHg 50%
    17:00 +31°C° 0 mm 0 mps 744 mmHg 53%
    18:00 +31°C° 0.6 mm 1 mps 745 mmHg 64%
    19:00 +29°C° 0.6 mm 1 mps 745 mmHg 75%
    20:00 +27°C° 0.6 mm 1 mps 746 mmHg 85%
    21:00 +26°C° 0.7 mm 1 mps 746 mmHg 89%
    22:00 +26°C° 0.7 mm 1 mps 747 mmHg 93%
    23:00 +25°C° 0.7 mm 1 mps 747 mmHg 97%

    Tomorrow, 21 September, Thursday

    Time Temperature Precipitation Wind Pressure Humidity
    00:00 +25°C° 0.2 mm 1 mps 747 mmHg 97%
    01:00 +25°C° 0.2 mm 1 mps 747 mmHg 98%
    02:00 +25°C° 0.2 mm 1 mps 746 mmHg 98%
    03:00 +24°C° 0 mm 1 mps 746 mmHg 98%
    04:00 +24°C° 0 mm 1 mps 746 mmHg 99%
    05:00 +24°C° 0 mm 1 mps 746 mmHg 99%
    06:00 +26°C° 0 mm 1 mps 747 mmHg 92%
    07:00 +27°C° 0 mm 1 mps 747 mmHg 84%
    08:00 +29°C° 0 mm 1 mps 748 mmHg 77%
    09:00 +31°C° 0 mm 2 mps 747 mmHg 66%
    10:00 +35°C° 0 mm 2 mps 747 mmHg 55%
    11:00 +37°C° 0 mm 2 mps 747 mmHg 44%
    12:00 +36°C° 0 mm 1 mps 746 mmHg 43%
    13:00 +36°C° 0 mm 1 mps 745 mmHg 43%
    14:00 +36°C° 0 mm 1 mps 744 mmHg 43%
    15:00 +35°C° 0 mm 1 mps 744 mmHg 49%
    16:00 +33°C° 0 mm 1 mps 744 mmHg 54%
    17:00 +32°C° 0 mm 1 mps 744 mmHg 60%
    18:00 +30°C° 1.8 mm 1 mps 744 mmHg 72%
    19:00 +28°C° 1.8 mm 1 mps 745 mmHg 84%
    20:00 +25°C° 1.8 mm 2 mps 746 mmHg 96%
    21:00 +25°C° 0.9 mm 2 mps 746 mmHg 97%
    22:00 +25°C° 0.9 mm 1 mps 747 mmHg 97%
    23:00 +25°C° 0.9 mm 1 mps 747 mmHg 97%

    Day after tomorrow, 22 September, Friday

    Time Temperature Precipitation Wind Pressure Humidity
    00:00 +25°C° 0.1 mm 1 mps 747 mmHg 98%
    01:00 +25°C° 0.1 mm 1 mps 746 mmHg 98%
    02:00 +24°C° 0.1 mm 1 mps 746 mmHg 98%
    03:00 +24°C° 0 mm 1 mps 746 mmHg 98%
    04:00 +24°C° 0 mm 1 mps 746 mmHg 99%
    05:00 +22°C° 0 mm 0 mps 746 mmHg 99%
    06:00 +25°C° 0 mm 1 mps 747 mmHg 93%
    07:00 +27°C° 0 mm 1 mps 747 mmHg 88%
    08:00 +28°C° 0 mm 2 mps 748 mmHg 83%
    09:00 +30°C° 0 mm 2 mps 747 mmHg 73%
    10:00 +32°C° 0 mm 2 mps 747 mmHg 64%
    11:00 +35°C° 0 mm 2 mps 747 mmHg 54%
    12:00 +35°C° 0 mm 2 mps 746 mmHg 52%
    13:00 +36°C° 0 mm 2 mps 745 mmHg 50%
    14:00 +35°C° 0 mm 1 mps 744 mmHg 48%
    15:00 +34°C° 0 mm 1 mps 744 mmHg 52%
    16:00 +33°C° 0 mm 1 mps 744 mmHg 56%
    17:00 +32°C° 0 mm 1 mps 744 mmHg 60%
    18:00 +30°C° 0.1 mm 1 mps 745 mmHg 66%
    19:00 +29°C° 0.1 mm 2 mps 746 mmHg 72%
    20:00 +28°C° 0.1 mm 2 mps 746 mmHg 78%
    21:00 +27°C° 0 mm 2 mps 746 mmHg 79%
    22:00 +27°C° 0 mm 2 mps 747 mmHg 81%
    23:00 +27°C° 0 mm 2 mps 747 mmHg 82%

    23 September, Saturday

    Time Temperature Precipitation Wind Pressure Humidity
    00:00 +26°C° 0 mm 2 mps 746 mmHg 85%
    01:00 +26°C° 0 mm 1 mps 746 mmHg 88%
    02:00 +25°C° 0 mm 1 mps 745 mmHg 90%
    03:00 +25°C° 0 mm 1 mps 746 mmHg 92%
    04:00 +24°C° 0 mm 1 mps 746 mmHg 94%
    05:00 +24°C° 0 mm 1 mps 746 mmHg 96%
    06:00 +26°C° 0 mm 1 mps 747 mmHg 87%
    07:00 +28°C° 0 mm 2 mps 747 mmHg 78%
    08:00 +30°C° 0 mm 2 mps 748 mmHg 69%
    09:00 +31°C° 0 mm 2 mps 747 mmHg 61%
    10:00 +34°C° 0 mm 2 mps 747 mmHg 53%
    11:00 +36°C° 0 mm 3 mps 747 mmHg 45%
    12:00 +37°C° 0 mm 3 mps 746 mmHg 44%
    13:00 +37°C° 0 mm 2 mps 745 mmHg 43%
    14:00 +37°C° 0 mm 2 mps 744 mmHg 42%
    15:00 +36°C° 0 mm 2 mps 745 mmHg 48%
    16:00 +34°C° 0 mm 2 mps 745 mmHg 53%
    17:00 +32°C° 0 mm 1 mps 745 mmHg 59%
    18:00 +31°C° 0 mm 1 mps 745 mmHg 65%
    19:00 +29°C° 0 mm 1 mps 746 mmHg 71%
    20:00 +28°C° 0 mm 1 mps 746 mmHg 76%
    21:00 +27°C° 0 mm 1 mps 746 mmHg 77%
    22:00 +26°C° 0 mm 1 mps 747 mmHg 78%
    23:00 +26°C° 0 mm 1 mps 747 mmHg 79%

    24 September, Sunday

    Time Temperature Precipitation Wind Pressure Humidity
    00:00 +25°C° 0 mm 1 mps 746 mmHg 83%
    01:00 +24°C° 0 mm 1 mps 746 mmHg 87%
    02:00 +24°C° 0 mm 1 mps 746 mmHg 92%
    03:00 +24°C° 0 mm 1 mps 746 mmHg 94%
    04:00 +23°C° 0 mm 1 mps 746 mmHg 96%
    05:00 +23°C° 0 mm 1 mps 746 mmHg 98%
    06:00 +25°C° 0 mm 1 mps 747 mmHg 90%
    07:00 +27°C° 0 mm 2 mps 747 mmHg 82%
    08:00 +29°C° 0 mm 2 mps 748 mmHg 74%
    09:00 +30°C° 0 mm 2 mps 747 mmHg 65%
    10:00 +32°C° 0 mm 2 mps 747 mmHg 57%
    11:00 +35°C° 0 mm 2 mps 746 mmHg 49%
    12:00 +36°C° 0 mm 2 mps 746 mmHg 47%
    13:00 +36°C° 0 mm 2 mps 745 mmHg 46%
    14:00 +37°C° 0 mm 2 mps 744 mmHg 45%
    15:00 +35°C° 0.1 mm 2 mps 744 mmHg 51%
    16:00 +34°C° 0.1 mm 2 mps 744 mmHg 58%
    17:00 +31°C° 0.1 mm 2 mps 745 mmHg 65%
    18:00 +30°C° 0.1 mm 1 mps 745 mmHg 70%
    19:00 +28°C° 0.1 mm 1 mps 746 mmHg 76%
    20:00 +27°C° 0.1 mm 1 mps 746 mmHg 82%
    21:00 +26°C° 0.3 mm 1 mps 746 mmHg 86%
    22:00 +26°C° 0.3 mm 1 mps 746 mmHg 90%
    23:00 +25°C° 0.3 mm 1 mps 746 mmHg 94%

    25 September, Monday

    Time Temperature Precipitation Wind Pressure Humidity
    00:00 +25°C° 0 mm 1 mps 746 mmHg 96%
    01:00 +24°C° 0 mm 1 mps 746 mmHg 97%
    02:00 +24°C° 0 mm 1 mps 745 mmHg 98%
    03:00 +24°C° 0 mm 1 mps 746 mmHg 99%
    04:00 +24°C° 0 mm 1 mps 746 mmHg 99%
    05:00 +24°C° 0 mm 1 mps 746 mmHg 99%
    06:00 +25°C° 0 mm 1 mps 746 mmHg 93%
    07:00 +26°C° 0 mm 1 mps 747 mmHg 87%
    08:00 +28°C° 0 mm 1 mps 748 mmHg 81%
    09:00 +30°C° 0 mm 1 mps 747 mmHg 70%
    10:00 +34°C° 0 mm 2 mps 747 mmHg 58%
    11:00 +36°C° 0 mm 2 mps 747 mmHg 46%
    12:00 +36°C° 0 mm 2 mps 746 mmHg 45%
    13:00 +35°C° 0 mm 1 mps 745 mmHg 44%
    14:00 +36°C° 0 mm 1 mps 744 mmHg 43%
    15:00 +35°C° 0.1 mm 2 mps 744 mmHg 51%
    16:00 +34°C° 0.1 mm 2 mps 744 mmHg 58%
    17:00 +31°C° 0.1 mm 2 mps 744 mmHg 65%
    18:00 +29°C° 0 mm 2 mps 745 mmHg 73%
    19:00 +28°C° 0 mm 1 mps 745 mmHg 80%
    20:00 +26°C° 0 mm 1 mps 745 mmHg 87%
    21:00 +26°C° 0 mm 1 mps 746 mmHg 90%
    22:00 +26°C° 0 mm 1 mps 746 mmHg 93%
    23:00 +25°C° 0 mm 1 mps 746 mmHg 96%
    Show more